Time,TemperatureF,DewpointF,PressureIn,WindDirection,WindDirectionDegrees,WindSpeedMPH,WindSpeedGustMPH,Humidity,HourlyPrecipIn,Conditions,Clouds,dailyrainin,SoftwareType,DateUTC
2013-10-11 00:09:00,43.0,43.0,29.99,SSW,202,1.0,1.0,100,0.00,,,0.00,TxWx,2013-10-11 04:09:00,
2013-10-11 00:10:00,43.0,43.0,29.99,South,180,1.0,1.0,100,0.00,,,0.00,TxWx,2013-10-11 04:10:00,
2013-10-11 00:11:00,43.0,43.0,29.99,South,180,1.0,1.0,100,0.00,,,0.00,TxWx,2013-10-11 04:11:00,
2013-10-11 00:12:00,43.0,43.0,29.99,South,180,1.0,1.0,100,0.00,,,0.00,TxWx,2013-10-11 04:12:00,
2013-10-11 00:13:00,43.0,43.0,29.99,South,180,0.0,0.0,100,0.00,,,0.00,TxWx,2013-10-11 04:13:00,
2013-10-11 00:14:00,43.0,43.0,29.99,SSE,157,1.0,1.0,100,0.00,,,0.00,TxWx,2013-10-11 04:14:00,
2013-10-11 00:15:00,42.0,39.0,29.99,South,180,0.0,0.0,90,0.00,,,0.00,TxWx,2013-10-11 04:15:00,
2013-10-11 00:16:00,43.0,43.0,29.99,South,180,0.0,0.0,100,0.00,,,0.00,TxWx,2013-10-11 04:16:00,
2013-10-11 00:17:00,43.0,43.0,29.99,SSW,202,0.0,0.0,100,0.00,,,0.00,TxWx,2013-10-11 04:17:00,
2013-10-11 00:18:00,43.0,43.0,29.99,South,180,0.0,0.0,100,0.00,,,0.00,TxWx,2013-10-11 04:18:00,
2013-10-11 00:19:00,44.0,44.0,29.99,SSW,202,0.0,0.0,100,0.00,,,0.00,TxWx,2013-10-11 04:19:00,
2013-10-11 00:21:00,42.0,39.0,29.98,SSE,157,0.0,1.0,90,0.00,,,0.00,TxWx,2013-10-11 04:21:00,
2013-10-11 00:22:00,44.0,44.0,29.99,South,180,1.0,1.0,100,0.00,,,0.00,TxWx,2013-10-11 04:22:00,
2013-10-11 00:23:00,44.0,44.0,29.99,SSW,202,0.0,1.0,100,0.00,,,0.00,TxWx,2013-10-11 04:23:00,
2013-10-11 00:24:00,44.0,44.0,29.99,South,180,0.0,0.0,100,0.00,,,0.00,TxWx,2013-10-11 04:24:00,
2013-10-11 00:25:00,44.0,44.0,29.99,South,180,0.0,0.0,100,0.00,,,0.00,TxWx,2013-10-11 04:25:00,
2013-10-11 00:26:00,42.0,39.0,29.98,South,180,1.0,1.0,91,0.00,,,0.00,TxWx,2013-10-11 04:26:00,
2013-10-11 00:31:00,42.0,39.0,29.99,South,180,0.0,1.0,91,0.00,,,0.00,TxWx,2013-10-11 04:31:00,
2013-10-11 00:36:00,41.0,38.0,29.99,SSW,202,0.0,1.0,91,0.00,,,0.00,TxWx,2013-10-11 04:36:00,
2013-10-11 00:41:00,41.0,39.0,29.99,South,180,0.0,0.0,91,0.00,,,0.00,TxWx,2013-10-11 04:41:00,
2013-10-11 00:46:00,41.0,39.0,29.99,SSW,202,0.0,0.0,91,0.00,,,0.00,TxWx,2013-10-11 04:46:00,
2013-10-11 00:51:00,41.0,39.0,29.99,ESE,112,1.0,1.0,91,0.00,,,0.00,TxWx,2013-10-11 04:51:00,
2013-10-11 00:56:00,41.0,39.0,29.99,WSW,247,1.0,1.0,91,0.00,,,0.00,TxWx,2013-10-11 04:56:00,
2013-10-11 01:02:00,41.0,39.0,29.99,SE,135,1.0,1.0,92,0.00,,,0.00,TxWx,2013-10-11 05:02:00,
2013-10-11 01:07:00,41.0,39.0,29.99,SSE,157,1.0,1.0,92,0.00,,,0.00,TxWx,2013-10-11 05:07:00,
2013-10-11 01:12:00,41.0,39.0,29.99,ESE,112,2.0,3.0,92,0.00,,,0.00,TxWx,2013-10-11 05:12:00,
2013-10-11 01:17:00,41.0,39.0,29.99,South,180,1.0,1.0,92,0.00,,,0.00,TxWx,2013-10-11 05:17:00,
2013-10-11 01:22:00,41.0,39.0,29.99,WNW,292,1.0,2.0,92,0.00,,,0.00,TxWx,2013-10-11 05:22:00,
2013-10-11 01:27:00,41.0,39.0,29.98,SSW,202,2.0,2.0,92,0.00,,,0.00,TxWx,2013-10-11 05:27:00,
2013-10-11 01:32:00,41.0,39.0,29.98,SSW,202,1.0,1.0,92,0.00,,,0.00,TxWx,2013-10-11 05:32:00,
2013-10-11 01:37:00,40.0,38.0,29.98,SW,225,2.0,2.0,93,0.00,,,0.00,TxWx,2013-10-11 05:37:00,
2013-10-11 01:42:00,40.0,38.0,29.98,SSE,157,1.0,1.0,93,0.00,,,0.00,TxWx,2013-10-11 05:42:00,
2013-10-11 01:47:00,40.0,38.0,29.98,SSW,202,0.0,0.0,93,0.00,,,0.00,TxWx,2013-10-11 05:47:00,
2013-10-11 01:52:00,40.0,38.0,29.98,WSW,247,0.0,1.0,93,0.00,,,0.00,TxWx,2013-10-11 05:52:00,
2013-10-11 01:58:00,40.0,38.0,29.99,South,180,0.0,0.0,93,0.00,,,0.00,TxWx,2013-10-11 05:58:00,
2013-10-11 02:03:00,40.0,38.0,29.98,ESE,112,1.0,1.0,93,0.00,,,0.00,TxWx,2013-10-11 06:03:00,
2013-10-11 02:08:00,40.0,38.0,29.99,SSE,157,0.0,1.0,93,0.00,,,0.00,TxWx,2013-10-11 06:08:00,
2013-10-11 02:13:00,40.0,38.0,29.99,South,180,1.0,1.0,93,0.00,,,0.00,TxWx,2013-10-11 06:13:00,
2013-10-11 02:18:00,40.0,38.0,29.98,NNE,22,1.0,2.0,94,0.00,,,0.00,TxWx,2013-10-11 06:18:00,
2013-10-11 02:23:00,40.0,38.0,29.98,North,0,1.0,2.0,94,0.00,,,0.00,TxWx,2013-10-11 06:23:00,
2013-10-11 02:28:00,40.0,38.0,29.98,SSE,157,0.0,1.0,94,0.00,,,0.00,TxWx,2013-10-11 06:28:00,
2013-10-11 02:33:00,40.0,38.0,29.97,WSW,247,3.0,3.0,94,0.00,,,0.00,TxWx,2013-10-11 06:33:00,
2013-10-11 02:38:00,40.0,38.0,29.97,SW,225,4.0,4.0,94,0.00,,,0.00,TxWx,2013-10-11 06:38:00,
2013-10-11 02:43:00,39.0,37.0,29.97,NW,315,3.0,4.0,94,0.00,,,0.00,TxWx,2013-10-11 06:43:00,
2013-10-11 02:49:00,39.0,38.0,29.97,SW,225,3.0,3.0,95,0.00,,,0.00,TxWx,2013-10-11 06:49:00,
2013-10-11 02:54:00,40.0,39.0,29.97,NW,315,3.0,4.0,96,0.00,,,0.00,TxWx,2013-10-11 06:54:00,
2013-10-11 02:59:00,40.0,39.0,29.97,SSE,157,1.0,1.0,96,0.00,,,0.00,TxWx,2013-10-11 06:59:00,
2013-10-11 03:04:00,40.0,39.0,29.97,South,180,0.0,1.0,96,0.00,,,0.00,TxWx,2013-10-11 07:04:00,
2013-10-11 03:09:00,40.0,39.0,29.96,SSW,202,1.0,1.0,96,0.00,,,0.00,TxWx,2013-10-11 07:09:00,
2013-10-11 03:14:00,40.0,39.0,29.96,South,180,0.0,0.0,96,0.00,,,0.00,TxWx,2013-10-11 07:14:00,
2013-10-11 03:19:00,40.0,39.0,29.96,SSW,202,1.0,1.0,96,0.00,,,0.00,TxWx,2013-10-11 07:19:00,
2013-10-11 03:24:00,40.0,39.0,29.96,WNW,292,1.0,2.0,96,0.00,,,0.00,TxWx,2013-10-11 07:24:00,
2013-10-11 03:29:00,40.0,39.0,29.96,South,180,1.0,1.0,96,0.00,,,0.00,TxWx,2013-10-11 07:29:00,
2013-10-11 03:34:00,40.0,39.0,29.96,SW,225,1.0,2.0,96,0.00,,,0.00,TxWx,2013-10-11 07:34:00,
2013-10-11 03:39:00,40.0,39.0,29.96,SW,225,1.0,1.0,96,0.00,,,0.00,TxWx,2013-10-11 07:39:00,
2013-10-11 03:45:00,40.0,39.0,29.96,WSW,247,1.0,1.0,96,0.00,,,0.00,TxWx,2013-10-11 07:45:00,
2013-10-11 03:50:00,40.0,39.0,29.96,SSW,202,1.0,1.0,96,0.00,,,0.00,TxWx,2013-10-11 07:50:00,
2013-10-11 03:55:00,40.0,39.0,29.96,West,270,1.0,2.0,96,0.00,,,0.00,TxWx,2013-10-11 07:55:00,
2013-10-11 04:00:00,40.0,39.0,29.96,West,270,1.0,1.0,96,0.00,,,0.00,TxWx,2013-10-11 08:00:00,
2013-10-11 04:05:00,40.0,39.0,29.97,South,180,1.0,1.0,96,0.00,,,0.00,TxWx,2013-10-11 08:05:00,
2013-10-11 04:10:00,40.0,39.0,29.97,SSW,202,0.0,0.0,96,0.00,,,0.00,TxWx,2013-10-11 08:10:00,
2013-10-11 04:15:00,40.0,39.0,29.97,SSW,202,0.0,1.0,96,0.00,,,0.00,TxWx,2013-10-11 08:15:00,
2013-10-11 04:20:00,40.0,39.0,29.97,South,180,0.0,0.0,96,0.00,,,0.00,TxWx,2013-10-11 08:20:00,
2013-10-11 04:25:00,40.0,39.0,29.97,SSW,202,1.0,1.0,96,0.00,,,0.00,TxWx,2013-10-11 08:25:00,
2013-10-11 04:30:00,40.0,39.0,29.97,SSW,202,0.0,0.0,96,0.00,,,0.00,TxWx,2013-10-11 08:30:00,
2013-10-11 04:35:00,40.0,39.0,29.97,SSW,202,0.0,0.0,96,0.00,,,0.00,TxWx,2013-10-11 08:35:00,
2013-10-11 04:41:00,40.0,39.0,29.97,SSW,202,1.0,1.0,96,0.00,,,0.00,TxWx,2013-10-11 08:41:00,
2013-10-11 04:46:00,40.0,39.0,29.97,SSW,202,1.0,1.0,96,0.00,,,0.00,TxWx,2013-10-11 08:46:00,
2013-10-11 04:51:00,40.0,39.0,29.97,SW,225,1.0,1.0,97,0.00,,,0.00,TxWx,2013-10-11 08:51:00,
2013-10-11 04:56:00,40.0,39.0,29.97,South,180,1.0,2.0,96,0.00,,,0.00,TxWx,2013-10-11 08:56:00,
2013-10-11 05:01:00,39.0,38.0,29.97,SSW,202,0.0,0.0,97,0.00,,,0.00,TxWx,2013-10-11 09:01:00,
2013-10-11 05:06:00,39.0,38.0,29.97,SSE,157,1.0,1.0,97,0.00,,,0.00,TxWx,2013-10-11 09:06:00,
2013-10-11 05:11:00,39.0,38.0,29.97,SSW,202,0.0,0.0,97,0.00,,,0.00,TxWx,2013-10-11 09:11:00,
2013-10-11 05:16:00,39.0,38.0,29.96,SW,225,0.0,0.0,97,0.00,,,0.00,TxWx,2013-10-11 09:16:00,
2013-10-11 05:21:00,39.0,38.0,29.97,South,180,0.0,1.0,97,0.00,,,0.00,TxWx,2013-10-11 09:21:00,
2013-10-11 05:26:00,40.0,39.0,29.97,South,180,0.0,0.0,97,0.00,,,0.00,TxWx,2013-10-11 09:26:00,
2013-10-11 05:31:00,40.0,39.0,29.97,SSW,202,0.0,0.0,97,0.00,,,0.00,TxWx,2013-10-11 09:31:00,
2013-10-11 05:37:00,40.0,39.0,29.97,South,180,0.0,0.0,97,0.00,,,0.00,TxWx,2013-10-11 09:37:00,
2013-10-11 05:42:00,39.0,38.0,29.97,SSW,202,0.0,0.0,97,0.00,,,0.00,TxWx,2013-10-11 09:42:00,
2013-10-11 05:47:00,39.0,38.0,29.97,SSW,202,0.0,0.0,97,0.00,,,0.00,TxWx,2013-10-11 09:47:00,
2013-10-11 05:52:00,40.0,39.0,29.97,West,270,2.0,2.0,97,0.00,,,0.00,TxWx,2013-10-11 09:52:00,
2013-10-11 05:57:00,40.0,39.0,29.97,WSW,247,1.0,1.0,97,0.00,,,0.00,TxWx,2013-10-11 09:57:00,
2013-10-11 06:02:00,40.0,39.0,29.97,SW,225,1.0,1.0,97,0.00,,,0.00,TxWx,2013-10-11 10:02:00,
2013-10-11 06:07:00,40.0,39.0,29.97,SSW,202,1.0,1.0,97,0.00,,,0.00,TxWx,2013-10-11 10:07:00,
2013-10-11 06:12:00,40.0,39.0,29.98,SSW,202,0.0,0.0,97,0.00,,,0.00,TxWx,2013-10-11 10:12:00,
2013-10-11 06:17:00,40.0,39.0,29.98,South,180,0.0,0.0,97,0.00,,,0.00,TxWx,2013-10-11 10:17:00,
2013-10-11 06:22:00,39.0,38.0,29.98,South,180,0.0,0.0,97,0.00,,,0.00,TxWx,2013-10-11 10:22:00,
2013-10-11 06:27:00,39.0,38.0,29.98,SSW,202,0.0,0.0,97,0.00,,,0.00,TxWx,2013-10-11 10:27:00,
2013-10-11 06:32:00,39.0,38.0,29.98,SSW,202,0.0,0.0,97,0.00,,,0.00,TxWx,2013-10-11 10:32:00,
2013-10-11 06:38:00,39.0,38.0,29.98,SSW,202,0.0,0.0,97,0.00,,,0.00,TxWx,2013-10-11 10:38:00,
2013-10-11 06:43:00,39.0,38.0,29.98,SSW,202,0.0,0.0,97,0.00,,,0.00,TxWx,2013-10-11 10:43:00,
2013-10-11 06:48:00,39.0,38.0,29.98,SSW,202,0.0,0.0,97,0.00,,,0.00,TxWx,2013-10-11 10:48:00,
2013-10-11 06:53:00,39.0,38.0,29.98,SSW,202,0.0,0.0,97,0.00,,,0.00,TxWx,2013-10-11 10:53:00,
2013-10-11 06:58:00,39.0,38.0,29.98,SW,225,0.0,0.0,98,0.00,,,0.00,TxWx,2013-10-11 10:58:00,
2013-10-11 07:03:00,39.0,38.0,29.98,South,180,0.0,0.0,98,0.00,,,0.00,TxWx,2013-10-11 11:03:00,
2013-10-11 07:08:00,39.0,38.0,29.98,South,180,0.0,0.0,98,0.00,,,0.00,TxWx,2013-10-11 11:08:00,
2013-10-11 07:13:00,39.0,38.0,29.98,SSW,202,0.0,0.0,97,0.00,,,0.00,TxWx,2013-10-11 11:13:00,
2013-10-11 07:18:00,39.0,38.0,29.98,South,180,0.0,0.0,98,0.00,,,0.00,TxWx,2013-10-11 11:18:00,
2013-10-11 07:23:00,39.0,38.0,29.98,South,180,0.0,0.0,98,0.00,,,0.00,TxWx,2013-10-11 11:23:00,
2013-10-11 07:29:00,39.0,38.0,29.98,SSW,202,0.0,0.0,98,0.00,,,0.00,TxWx,2013-10-11 11:29:00,
2013-10-11 07:34:00,39.0,38.0,29.98,SSW,202,0.0,0.0,98,0.00,,,0.00,TxWx,2013-10-11 11:34:00,
2013-10-11 07:39:00,39.0,38.0,29.99,SSW,202,0.0,0.0,98,0.00,,,0.00,TxWx,2013-10-11 11:39:00,
2013-10-11 07:44:00,39.0,38.0,29.99,South,180,0.0,0.0,98,0.00,,,0.00,TxWx,2013-10-11 11:44:00,
2013-10-11 07:49:00,39.0,38.0,29.98,SW,225,0.0,0.0,98,0.00,,,0.00,TxWx,2013-10-11 11:49:00,
2013-10-11 07:54:00,39.0,38.0,29.98,SW,225,0.0,0.0,98,0.00,,,0.00,TxWx,2013-10-11 11:54:00,
2013-10-11 07:59:00,39.0,38.0,29.98,SW,225,0.0,0.0,98,0.00,,,0.00,TxWx,2013-10-11 11:59:00,
2013-10-11 08:04:00,40.0,39.0,29.98,SSW,202,0.0,0.0,98,0.00,,,0.00,TxWx,2013-10-11 12:04:00,
2013-10-11 08:09:00,40.0,39.0,29.98,SSW,202,0.0,0.0,98,0.00,,,0.00,TxWx,2013-10-11 12:09:00,
2013-10-11 08:14:00,40.0,39.0,29.98,South,180,0.0,0.0,98,0.00,,,0.00,TxWx,2013-10-11 12:14:00,
2013-10-11 08:20:00,40.0,40.0,29.98,South,180,1.0,1.0,99,0.00,,,0.00,TxWx,2013-10-11 12:20:00,
2013-10-11 08:25:00,40.0,40.0,29.99,SSW,202,1.0,1.0,99,0.00,,,0.00,TxWx,2013-10-11 12:25:00,
2013-10-11 08:30:00,40.0,40.0,29.99,SSW,202,1.0,1.0,99,0.00,,,0.00,TxWx,2013-10-11 12:30:00,
2013-10-11 08:35:00,40.0,40.0,29.99,SSW,202,1.0,1.0,99,0.00,,,0.00,TxWx,2013-10-11 12:35:00,
2013-10-11 08:40:00,41.0,41.0,29.98,South,180,0.0,0.0,99,0.00,,,0.00,TxWx,2013-10-11 12:40:00,
2013-10-11 08:45:00,41.0,41.0,29.98,SE,135,1.0,1.0,99,0.00,,,0.00,TxWx,2013-10-11 12:45:00,
2013-10-11 08:50:00,41.0,41.0,29.99,SSW,202,1.0,1.0,99,0.00,,,0.00,TxWx,2013-10-11 12:50:00,
2013-10-11 08:55:00,42.0,42.0,29.99,South,180,0.0,1.0,99,0.00,,,0.00,TxWx,2013-10-11 12:55:00,
2013-10-11 09:00:00,42.0,42.0,29.99,SSW,202,1.0,1.0,99,0.00,,,0.00,TxWx,2013-10-11 13:00:00,
2013-10-11 09:05:00,42.0,42.0,29.99,South,180,0.0,0.0,100,0.00,,,0.00,TxWx,2013-10-11 13:05:00,
2013-10-11 09:11:00,43.0,43.0,29.99,SSW,202,1.0,1.0,100,0.00,,,0.00,TxWx,2013-10-11 13:11:00,
2013-10-11 09:16:00,43.0,43.0,29.99,South,180,1.0,1.0,100,0.00,,,0.00,TxWx,2013-10-11 13:16:00,
2013-10-11 09:21:00,44.0,44.0,29.99,SSW,202,0.0,0.0,100,0.00,,,0.00,TxWx,2013-10-11 13:21:00,
2013-10-11 09:26:00,44.0,44.0,29.99,South,180,0.0,0.0,100,0.00,,,0.00,TxWx,2013-10-11 13:26:00,
2013-10-11 09:31:00,44.0,44.0,29.99,WSW,247,0.0,1.0,100,0.00,,,0.00,TxWx,2013-10-11 13:31:00,
2013-10-11 09:36:00,45.0,45.0,29.99,South,180,0.0,0.0,100,0.00,,,0.00,TxWx,2013-10-11 13:36:00,
2013-10-11 09:41:00,46.0,46.0,29.99,South,180,0.0,0.0,100,0.00,,,0.00,TxWx,2013-10-11 13:41:00,
2013-10-11 09:47:00,47.0,47.0,29.99,SW,225,1.0,1.0,100,0.00,,,0.00,TxWx,2013-10-11 13:47:00,
2013-10-11 09:52:00,47.0,47.0,29.99,South,180,0.0,0.0,100,0.00,,,0.00,TxWx,2013-10-11 13:52:00,
2013-10-11 09:57:00,48.0,48.0,29.98,South,180,0.0,0.0,100,0.00,,,0.00,TxWx,2013-10-11 13:57:00,
2013-10-11 10:02:00,49.0,49.0,29.99,SE,135,0.0,1.0,100,0.00,,,0.00,TxWx,2013-10-11 14:02:00,
2013-10-11 10:07:00,51.0,51.0,29.99,SSW,202,0.0,1.0,100,0.00,,,0.00,TxWx,2013-10-11 14:07:00,
2013-10-11 10:12:00,52.0,52.0,29.98,South,180,1.0,2.0,100,0.00,,,0.00,TxWx,2013-10-11 14:12:00,
2013-10-11 10:17:00,54.0,54.0,29.98,SSW,202,0.0,1.0,100,0.00,,,0.00,TxWx,2013-10-11 14:17:00,
2013-10-11 10:22:00,54.0,54.0,29.99,SSW,202,1.0,1.0,100,0.00,,,0.00,TxWx,2013-10-11 14:22:00,
2013-10-11 10:27:00,54.0,54.0,29.99,SW,225,0.0,1.0,99,0.00,,,0.00,TxWx,2013-10-11 14:27:00,
2013-10-11 10:32:00,55.0,54.0,29.98,South,180,1.0,2.0,98,0.00,,,0.00,TxWx,2013-10-11 14:32:00,
2013-10-11 10:38:00,55.0,54.0,29.98,South,180,1.0,1.0,96,0.00,,,0.00,TxWx,2013-10-11 14:38:00,
2013-10-11 10:43:00,56.0,54.0,29.98,SW,225,2.0,3.0,94,0.00,,,0.00,TxWx,2013-10-11 14:43:00,
2013-10-11 10:48:00,56.0,54.0,29.98,South,180,1.0,2.0,92,0.00,,,0.00,TxWx,2013-10-11 14:48:00,
2013-10-11 10:53:00,57.0,53.0,29.98,SW,225,1.0,2.0,88,0.00,,,0.00,TxWx,2013-10-11 14:53:00,
2013-10-11 10:58:00,58.0,53.0,29.98,SSE,157,0.0,1.0,84,0.00,,,0.00,TxWx,2013-10-11 14:58:00,
2013-10-11 11:03:00,58.0,52.0,29.98,South,180,1.0,1.0,80,0.00,,,0.00,TxWx,2013-10-11 15:03:00,
2013-10-11 11:08:00,59.0,51.0,29.97,SSW,202,1.0,1.0,75,0.00,,,0.00,TxWx,2013-10-11 15:08:00,
2013-10-11 11:13:00,59.0,49.0,29.97,South,180,1.0,3.0,70,0.00,,,0.00,TxWx,2013-10-11 15:13:00,
2013-10-11 11:18:00,59.0,47.0,29.97,South,180,1.0,2.0,64,0.00,,,0.00,TxWx,2013-10-11 15:18:00,
2013-10-11 11:23:00,60.0,44.0,29.97,SE,135,2.0,2.0,57,0.00,,,0.00,TxWx,2013-10-11 15:23:00,
2013-10-11 11:28:00,61.0,45.0,29.97,SSW,202,2.0,2.0,57,0.00,,,0.00,TxWx,2013-10-11 15:28:00,
2013-10-11 11:34:00,61.0,44.0,29.97,SW,225,1.0,2.0,53,0.00,,,0.00,TxWx,2013-10-11 15:34:00,
2013-10-11 11:39:00,62.0,44.0,29.97,SE,135,2.0,3.0,52,0.00,,,0.00,TxWx,2013-10-11 15:39:00,
2013-10-11 11:44:00,63.0,45.0,29.97,East,90,2.0,2.0,52,0.00,,,0.00,TxWx,2013-10-11 15:44:00,
2013-10-11 11:49:00,63.0,45.0,29.97,ESE,112,2.0,3.0,52,0.00,,,0.00,TxWx,2013-10-11 15:49:00,
2013-10-11 11:54:00,64.0,46.0,29.97,SSW,202,0.0,1.0,52,0.00,,,0.00,TxWx,2013-10-11 15:54:00,
2013-10-11 11:59:00,65.0,46.0,29.96,SE,135,2.0,2.0,50,0.00,,,0.00,TxWx,2013-10-11 15:59:00,
2013-10-11 12:04:00,65.0,45.0,29.96,West,270,1.0,1.0,49,0.00,,,0.00,TxWx,2013-10-11 16:04:00,
2013-10-11 12:09:00,65.0,45.0,29.96,ESE,112,2.0,3.0,48,0.00,,,0.00,TxWx,2013-10-11 16:09:00,
2013-10-11 12:14:00,65.0,44.0,29.96,ENE,67,2.0,2.0,47,0.00,,,0.00,TxWx,2013-10-11 16:14:00,
2013-10-11 12:19:00,65.0,43.0,29.96,SSE,157,1.0,1.0,45,0.00,,,0.00,TxWx,2013-10-11 16:19:00,
2013-10-11 12:25:00,66.0,43.0,29.96,South,180,1.0,3.0,43,0.00,,,0.00,TxWx,2013-10-11 16:25:00,
2013-10-11 12:30:00,66.0,43.0,29.96,SSE,157,1.0,1.0,43,0.00,,,0.00,TxWx,2013-10-11 16:30:00,
2013-10-11 12:35:00,66.0,43.0,29.96,SSE,157,1.0,1.0,43,0.00,,,0.00,TxWx,2013-10-11 16:35:00,
2013-10-11 12:40:00,66.0,42.0,29.95,South,180,1.0,1.0,42,0.00,,,0.00,TxWx,2013-10-11 16:40:00,
2013-10-11 12:45:00,67.0,44.0,29.95,West,270,2.0,2.0,44,0.00,,,0.00,TxWx,2013-10-11 16:45:00,
2013-10-11 12:50:00,66.0,42.0,29.95,SW,225,2.0,3.0,42,0.00,,,0.00,TxWx,2013-10-11 16:50:00,
2013-10-11 12:55:00,66.0,43.0,29.95,SSW,202,1.0,1.0,43,0.00,,,0.00,TxWx,2013-10-11 16:55:00,
2013-10-11 13:00:00,67.0,43.0,29.95,WNW,292,1.0,2.0,42,0.00,,,0.00,TxWx,2013-10-11 17:00:00,
2013-10-11 13:02:00,43.0,37.0,29.98,SSW,202,0.0,0.0,81,0.00,,,0.00,TxWx,2013-10-11 17:02:00,
2013-10-11 13:03:00,43.0,37.0,29.98,South,180,0.0,0.0,81,0.00,,,0.00,TxWx,2013-10-11 17:03:00,
2013-10-11 13:04:00,43.0,37.0,29.98,SSW,202,0.0,0.0,81,0.00,,,0.00,TxWx,2013-10-11 17:04:00,
2013-10-11 13:05:00,68.0,43.0,29.95,NW,315,2.0,3.0,41,0.00,,,0.00,TxWx,2013-10-11 17:05:00,
2013-10-11 13:06:00,43.0,37.0,29.98,SSE,157,0.0,0.0,81,0.00,,,0.00,TxWx,2013-10-11 17:06:00,
2013-10-11 13:07:00,43.0,37.0,29.98,SSE,157,0.0,0.0,81,0.00,,,0.00,TxWx,2013-10-11 17:07:00,
2013-10-11 13:08:00,43.0,37.0,29.98,South,180,0.0,0.0,81,0.00,,,0.00,TxWx,2013-10-11 17:08:00,
2013-10-11 13:09:00,43.0,38.0,29.98,South,180,0.0,0.0,81,0.00,,,0.00,TxWx,2013-10-11 17:09:00,
2013-10-11 13:10:00,68.0,41.0,29.95,SSE,157,1.0,3.0,37,0.00,,,0.00,TxWx,2013-10-11 17:10:00,
2013-10-11 13:11:00,43.0,38.0,29.98,South,180,0.0,0.0,81,0.00,,,0.00,TxWx,2013-10-11 17:11:00,
2013-10-11 13:12:00,43.0,38.0,29.99,South,180,0.0,0.0,81,0.00,,,0.00,TxWx,2013-10-11 17:12:00,
2013-10-11 13:13:00,43.0,38.0,29.98,South,180,0.0,0.0,81,0.00,,,0.00,TxWx,2013-10-11 17:13:00,
2013-10-11 13:14:00,43.0,38.0,29.98,South,180,0.0,0.0,81,0.00,,,0.00,TxWx,2013-10-11 17:14:00,
2013-10-11 13:15:00,69.0,40.0,29.95,South,180,1.0,1.0,35,0.00,,,0.00,TxWx,2013-10-11 17:15:00,
2013-10-11 13:16:00,42.0,37.0,29.98,South,180,0.0,0.0,81,0.00,,,0.00,TxWx,2013-10-11 17:16:00,
2013-10-11 13:17:00,42.0,37.0,29.98,South,180,0.0,0.0,81,0.00,,,0.00,TxWx,2013-10-11 17:17:00,
2013-10-11 13:18:00,42.0,37.0,29.98,South,180,0.0,0.0,81,0.00,,,0.00,TxWx,2013-10-11 17:18:00,
2013-10-11 13:20:00,69.0,38.0,29.94,ENE,67,2.0,4.0,32,0.00,,,0.00,TxWx,2013-10-11 17:20:00,
2013-10-11 13:21:00,42.0,37.0,29.98,SSW,202,0.0,0.0,82,0.00,,,0.00,TxWx,2013-10-11 17:21:00,
2013-10-11 13:23:00,42.0,37.0,29.99,SW,225,0.0,0.0,82,0.00,,,0.00,TxWx,2013-10-11 17:23:00,
2013-10-11 13:25:00,69.0,38.0,29.94,SE,135,3.0,5.0,32,0.00,,,0.00,TxWx,2013-10-11 17:25:00,
2013-10-11 13:28:00,42.0,37.0,29.99,South,180,0.0,0.0,83,0.00,,,0.00,TxWx,2013-10-11 17:28:00,
2013-10-11 13:29:00,42.0,37.0,29.99,South,180,0.0,0.0,83,0.00,,,0.00,TxWx,2013-10-11 17:29:00,
2013-10-11 13:30:00,69.0,38.0,29.94,SSE,157,0.0,1.0,32,0.00,,,0.00,TxWx,2013-10-11 17:30:00,
2013-10-11 13:35:00,69.0,38.0,29.94,South,180,1.0,1.0,32,0.00,,,0.00,TxWx,2013-10-11 17:35:00,
2013-10-11 13:40:00,69.0,37.0,29.94,ESE,112,3.0,3.0,32,0.00,,,0.00,TxWx,2013-10-11 17:40:00,
2013-10-11 13:45:00,69.0,38.0,29.94,SSE,157,1.0,1.0,32,0.00,,,0.00,TxWx,2013-10-11 17:45:00,
2013-10-11 13:50:00,69.0,38.0,29.94,SE,135,1.0,1.0,33,0.00,,,0.00,TxWx,2013-10-11 17:50:00,
2013-10-11 13:55:00,69.0,38.0,29.94,SE,135,2.0,3.0,32,0.00,,,0.00,TxWx,2013-10-11 17:55:00,
2013-10-11 13:58:00,40.0,36.0,29.99,SSW,202,0.0,0.0,84,0.00,,,0.00,TxWx,2013-10-11 17:58:00,
2013-10-11 13:59:00,40.0,36.0,29.99,SSW,202,0.0,0.0,84,0.00,,,0.00,TxWx,2013-10-11 17:59:00,
2013-10-11 14:00:00,69.0,38.0,29.94,SSE,157,0.0,0.0,33,0.00,,,0.00,TxWx,2013-10-11 18:00:00,
2013-10-11 14:01:00,40.0,36.0,29.99,SSW,202,0.0,0.0,85,0.00,,,0.00,TxWx,2013-10-11 18:01:00,
2013-10-11 14:03:00,40.0,36.0,29.99,SSW,202,0.0,0.0,85,0.00,,,0.00,TxWx,2013-10-11 18:03:00,
2013-10-11 14:04:00,40.0,36.0,29.99,South,180,0.0,0.0,85,0.00,,,0.00,TxWx,2013-10-11 18:04:00,
2013-10-11 14:05:00,69.0,39.0,29.94,NW,315,0.0,0.0,33,0.00,,,0.00,TxWx,2013-10-11 18:05:00,
2013-10-11 14:06:00,40.0,36.0,29.99,South,180,0.0,0.0,85,0.00,,,0.00,TxWx,2013-10-11 18:06:00,
2013-10-11 14:08:00,40.0,36.0,29.99,SSW,202,0.0,0.0,85,0.00,,,0.00,TxWx,2013-10-11 18:08:00,
2013-10-11 14:10:00,69.0,39.0,29.94,East,90,2.0,2.0,33,0.00,,,0.00,TxWx,2013-10-11 18:10:00,
2013-10-11 14:11:00,40.0,36.0,29.99,South,180,0.0,0.0,85,0.00,,,0.00,TxWx,2013-10-11 18:11:00,
2013-10-11 14:13:00,40.0,36.0,29.99,South,180,0.0,0.0,85,0.00,,,0.00,TxWx,2013-10-11 18:13:00,
2013-10-11 14:15:00,40.0,36.0,29.99,South,180,0.0,0.0,85,0.00,,,0.00,TxWx,2013-10-11 18:15:00,
2013-10-11 14:16:00,69.0,38.0,29.94,SSE,157,0.0,0.0,32,0.00,,,0.00,TxWx,2013-10-11 18:16:00,
2013-10-11 14:17:00,40.0,36.0,29.99,South,180,0.0,0.0,85,0.00,,,0.00,TxWx,2013-10-11 18:17:00,
2013-10-11 14:18:00,40.0,36.0,29.99,South,180,0.0,0.0,85,0.00,,,0.00,TxWx,2013-10-11 18:18:00,
2013-10-11 14:19:00,39.0,35.0,29.99,South,180,0.0,0.0,86,0.00,,,0.00,TxWx,2013-10-11 18:19:00,
2013-10-11 14:20:00,39.0,35.0,29.99,South,180,0.0,0.0,86,0.00,,,0.00,TxWx,2013-10-11 18:20:00,
2013-10-11 14:21:00,69.0,37.0,29.94,West,270,3.0,3.0,31,0.00,,,0.00,TxWx,2013-10-11 18:21:00,
2013-10-11 14:26:00,69.0,37.0,29.93,ESE,112,1.0,2.0,31,0.00,,,0.00,TxWx,2013-10-11 18:26:00,
2013-10-11 14:30:00,69.0,37.0,29.93,SE,135,1.0,2.0,31,0.00,,,0.00,TxWx,2013-10-11 18:30:00,
2013-10-11 14:36:00,69.0,37.0,29.94,South,180,0.0,0.0,31,0.00,,,0.00,TxWx,2013-10-11 18:36:00,
2013-10-11 14:41:00,69.0,37.0,29.94,SW,225,1.0,1.0,31,0.00,,,0.00,TxWx,2013-10-11 18:41:00,
2013-10-11 14:46:00,70.0,38.0,29.94,SSE,157,0.0,1.0,32,0.00,,,0.00,TxWx,2013-10-11 18:46:00,
2013-10-11 14:51:00,70.0,37.0,29.94,SSE,157,1.0,1.0,31,0.00,,,0.00,TxWx,2013-10-11 18:51:00,
2013-10-11 14:56:00,70.0,37.0,29.94,WSW,247,1.0,2.0,30,0.00,,,0.00,TxWx,2013-10-11 18:56:00,
2013-10-11 14:59:00,38.0,35.0,29.99,South,180,1.0,1.0,88,0.00,,,0.00,TxWx,2013-10-11 18:59:00,
2013-10-11 15:00:00,39.0,36.0,29.99,South,180,0.0,0.0,88,0.00,,,0.00,TxWx,2013-10-11 19:00:00,
2013-10-11 15:01:00,71.0,38.0,29.93,West,270,2.0,3.0,30,0.00,,,0.00,TxWx,2013-10-11 19:01:00,
2013-10-11 15:02:00,39.0,36.0,29.99,SSE,157,1.0,1.0,88,0.00,,,0.00,TxWx,2013-10-11 19:02:00,
2013-10-11 15:03:00,38.0,35.0,29.99,South,180,0.0,1.0,88,0.00,,,0.00,TxWx,2013-10-11 19:03:00,
2013-10-11 15:04:00,38.0,35.0,29.99,South,180,0.0,0.0,88,0.00,,,0.00,TxWx,2013-10-11 19:04:00,
2013-10-11 15:05:00,38.0,35.0,29.99,South,180,0.0,0.0,88,0.00,,,0.00,TxWx,2013-10-11 19:05:00,
2013-10-11 15:06:00,71.0,37.0,29.93,SE,135,3.0,3.0,29,0.00,,,0.00,TxWx,2013-10-11 19:06:00,
2013-10-11 15:07:00,38.0,35.0,29.99,SSW,202,0.0,0.0,88,0.00,,,0.00,TxWx,2013-10-11 19:07:00,
2013-10-11 15:08:00,38.0,35.0,29.99,East,90,0.0,0.0,88,0.00,,,0.00,TxWx,2013-10-11 19:08:00,
2013-10-11 15:09:00,38.0,35.0,29.99,South,180,0.0,0.0,88,0.00,,,0.00,TxWx,2013-10-11 19:09:00,
2013-10-11 15:10:00,38.0,35.0,29.99,South,180,0.0,0.0,88,0.00,,,0.00,TxWx,2013-10-11 19:10:00,
2013-10-11 15:11:00,70.0,36.0,29.93,South,180,2.0,2.0,29,0.00,,,0.00,TxWx,2013-10-11 19:11:00,
2013-10-11 15:12:00,38.0,35.0,29.99,SSW,202,0.0,0.0,88,0.00,,,0.00,TxWx,2013-10-11 19:12:00,
2013-10-11 15:13:00,38.0,35.0,29.99,South,180,0.0,0.0,88,0.00,,,0.00,TxWx,2013-10-11 19:13:00,
2013-10-11 15:14:00,38.0,35.0,29.99,South,180,0.0,0.0,88,0.00,,,0.00,TxWx,2013-10-11 19:14:00,
2013-10-11 15:15:00,38.0,35.0,29.99,South,180,0.0,0.0,88,0.00,,,0.00,TxWx,2013-10-11 19:15:00,
2013-10-11 15:16:00,38.0,35.0,29.99,South,180,0.0,0.0,88,0.00,,,0.00,TxWx,2013-10-11 19:16:00,
2013-10-11 15:17:00,71.0,38.0,29.93,NNE,22,2.0,2.0,30,0.00,,,0.00,TxWx,2013-10-11 19:17:00,
2013-10-11 15:18:00,38.0,35.0,29.99,South,180,0.0,0.0,88,0.00,,,0.00,TxWx,2013-10-11 19:18:00,
2013-10-11 15:19:00,38.0,35.0,29.99,South,180,0.0,0.0,88,0.00,,,0.00,TxWx,2013-10-11 19:19:00,
2013-10-11 15:20:00,38.0,35.0,29.99,South,180,0.0,0.0,88,0.00,,,0.00,TxWx,2013-10-11 19:20:00,
2013-10-11 15:21:00,38.0,35.0,29.99,SSE,157,0.0,0.0,88,0.00,,,0.00,TxWx,2013-10-11 19:21:00,
2013-10-11 15:22:00,71.0,38.0,29.93,WSW,247,1.0,2.0,30,0.00,,,0.00,TxWx,2013-10-11 19:22:00,
2013-10-11 15:23:00,38.0,35.0,29.99,SSE,157,0.0,1.0,88,0.00,,,0.00,TxWx,2013-10-11 19:23:00,
2013-10-11 15:24:00,38.0,35.0,29.99,South,180,1.0,1.0,88,0.00,,,0.00,TxWx,2013-10-11 19:24:00,
2013-10-11 15:25:00,38.0,35.0,29.99,South,180,0.0,0.0,89,0.00,,,0.00,TxWx,2013-10-11 19:25:00,
2013-10-11 15:27:00,71.0,37.0,29.93,SSE,157,2.0,3.0,29,0.00,,,0.00,TxWx,2013-10-11 19:27:00,
2013-10-11 15:32:00,71.0,36.0,29.93,South,180,1.0,2.0,28,0.00,,,0.00,TxWx,2013-10-11 19:32:00,
2013-10-11 15:37:00,71.0,37.0,29.93,SSE,157,2.0,3.0,29,0.00,,,0.00,TxWx,2013-10-11 19:37:00,
2013-10-11 15:42:00,71.0,36.0,29.93,SE,135,2.0,3.0,28,0.00,,,0.00,TxWx,2013-10-11 19:42:00,
2013-10-11 15:47:00,71.0,36.0,29.93,SSE,157,1.0,1.0,28,0.00,,,0.00,TxWx,2013-10-11 19:47:00,
2013-10-11 15:52:00,71.0,37.0,29.93,SE,135,1.0,2.0,29,0.00,,,0.00,TxWx,2013-10-11 19:52:00,
2013-10-11 15:57:00,72.0,37.0,29.93,West,270,1.0,1.0,29,0.00,,,0.00,TxWx,2013-10-11 19:57:00,
2013-10-11 16:02:00,72.0,37.0,29.93,SSE,157,1.0,1.0,29,0.00,,,0.00,TxWx,2013-10-11 20:02:00,
2013-10-11 16:07:00,72.0,37.0,29.93,North,0,1.0,2.0,28,0.00,,,0.00,TxWx,2013-10-11 20:07:00,
2013-10-11 16:12:00,71.0,35.0,29.93,WSW,247,1.0,3.0,27,0.00,,,0.00,TxWx,2013-10-11 20:12:00,
2013-10-11 16:17:00,71.0,36.0,29.93,SSW,202,0.0,1.0,28,0.00,,,0.00,TxWx,2013-10-11 20:17:00,
2013-10-11 16:23:00,72.0,37.0,29.93,South,180,1.0,1.0,28,0.00,,,0.00,TxWx,2013-10-11 20:23:00,
2013-10-11 16:27:00,72.0,36.0,29.93,SE,135,3.0,3.0,27,0.00,,,0.00,TxWx,2013-10-11 20:27:00,
2013-10-11 16:32:00,72.0,37.0,29.93,SE,135,3.0,3.0,28,0.00,,,0.00,TxWx,2013-10-11 20:32:00,
2013-10-11 16:38:00,72.0,36.0,29.93,South,180,4.0,4.0,27,0.00,,,0.00,TxWx,2013-10-11 20:38:00,
2013-10-11 16:42:00,71.0,35.0,29.93,South,180,0.0,0.0,27,0.00,,,0.00,TxWx,2013-10-11 20:42:00,
2013-10-11 16:47:00,72.0,37.0,29.93,South,180,0.0,1.0,28,0.00,,,0.00,TxWx,2013-10-11 20:47:00,
2013-10-11 16:53:00,72.0,36.0,29.93,SSE,157,1.0,1.0,27,0.00,,,0.00,TxWx,2013-10-11 20:53:00,
2013-10-11 16:58:00,71.0,36.0,29.93,ESE,112,3.0,3.0,28,0.00,,,0.00,TxWx,2013-10-11 20:58:00,
2013-10-11 17:03:00,71.0,36.0,29.93,SSE,157,1.0,2.0,28,0.00,,,0.00,TxWx,2013-10-11 21:03:00,
2013-10-11 17:08:00,71.0,36.0,29.93,SSE,157,2.0,3.0,28,0.00,,,0.00,TxWx,2013-10-11 21:08:00,
2013-10-11 17:13:00,71.0,36.0,29.93,SSE,157,2.0,3.0,28,0.00,,,0.00,TxWx,2013-10-11 21:13:00,
2013-10-11 17:18:00,70.0,36.0,29.93,South,180,1.0,2.0,29,0.00,,,0.00,TxWx,2013-10-11 21:18:00,
2013-10-11 17:23:00,70.0,37.0,29.93,South,180,1.0,2.0,30,0.00,,,0.00,TxWx,2013-10-11 21:23:00,
2013-10-11 17:28:00,69.0,36.0,29.93,SSW,202,1.0,1.0,30,0.00,,,0.00,TxWx,2013-10-11 21:28:00,
2013-10-11 17:33:00,69.0,37.0,29.93,ESE,112,3.0,3.0,31,0.00,,,0.00,TxWx,2013-10-11 21:33:00,
2013-10-11 17:38:00,69.0,37.0,29.93,SSE,157,1.0,1.0,31,0.00,,,0.00,TxWx,2013-10-11 21:38:00,
2013-10-11 17:43:00,68.0,37.0,29.93,South,180,1.0,1.0,32,0.00,,,0.00,TxWx,2013-10-11 21:43:00,
2013-10-11 17:48:00,67.0,36.0,29.93,South,180,1.0,2.0,33,0.00,,,0.00,TxWx,2013-10-11 21:48:00,
2013-10-11 17:53:00,67.0,37.0,29.93,ESE,112,3.0,3.0,34,0.00,,,0.00,TxWx,2013-10-11 21:53:00,
2013-10-11 17:58:00,66.0,37.0,29.93,East,90,2.0,3.0,35,0.00,,,0.00,TxWx,2013-10-11 21:58:00,
2013-10-11 18:03:00,65.0,37.0,29.93,SE,135,3.0,4.0,36,0.00,,,0.00,TxWx,2013-10-11 22:03:00,
2013-10-11 18:08:00,65.0,38.0,29.94,SE,135,2.0,2.0,37,0.00,,,0.00,TxWx,2013-10-11 22:08:00,
2013-10-11 18:13:00,64.0,37.0,29.94,SSE,157,1.0,1.0,37,0.00,,,0.00,TxWx,2013-10-11 22:13:00,
2013-10-11 18:19:00,64.0,38.0,29.94,ESE,112,2.0,2.0,38,0.00,,,0.00,TxWx,2013-10-11 22:19:00,
2013-10-11 18:23:00,63.0,37.0,29.94,South,180,0.0,0.0,39,0.00,,,0.00,TxWx,2013-10-11 22:23:00,
2013-10-11 18:29:00,63.0,38.0,29.94,South,180,0.0,0.0,39,0.00,,,0.00,TxWx,2013-10-11 22:29:00,
2013-10-11 18:34:00,62.0,36.0,29.94,SSE,157,1.0,1.0,39,0.00,,,0.00,TxWx,2013-10-11 22:34:00,
2013-10-11 18:39:00,62.0,38.0,29.95,SSW,202,0.0,1.0,41,0.00,,,0.00,TxWx,2013-10-11 22:39:00,
2013-10-11 18:44:00,61.0,37.0,29.95,SSW,202,1.0,1.0,42,0.00,,,0.00,TxWx,2013-10-11 22:44:00,
2013-10-11 18:49:00,60.0,38.0,29.95,SW,225,0.0,0.0,44,0.00,,,0.00,TxWx,2013-10-11 22:49:00,
2013-10-11 18:54:00,59.0,38.0,29.95,South,180,0.0,0.0,45,0.00,,,0.00,TxWx,2013-10-11 22:54:00,
2013-10-11 18:59:00,58.0,37.0,29.95,South,180,0.0,0.0,46,0.00,,,0.00,TxWx,2013-10-11 22:59:00,
2013-10-11 19:04:00,58.0,38.0,29.95,SSW,202,0.0,0.0,47,0.00,,,0.00,TxWx,2013-10-11 23:04:00,
2013-10-11 19:09:00,57.0,37.0,29.95,SSW,202,0.0,0.0,48,0.00,,,0.00,TxWx,2013-10-11 23:09:00,
2013-10-11 19:14:00,56.0,38.0,29.95,SSE,157,0.0,0.0,50,0.00,,,0.00,TxWx,2013-10-11 23:14:00,
2013-10-11 19:19:00,55.0,37.0,29.95,SSW,202,0.0,0.0,52,0.00,,,0.00,TxWx,2013-10-11 23:19:00,
2013-10-11 19:25:00,54.0,37.0,29.95,South,180,0.0,0.0,53,0.00,,,0.00,TxWx,2013-10-11 23:25:00,
2013-10-11 19:30:00,54.0,38.0,29.95,SSW,202,0.0,0.0,54,0.00,,,0.00,TxWx,2013-10-11 23:30:00,
2013-10-11 19:35:00,53.0,38.0,29.95,SSW,202,0.0,0.0,57,0.00,,,0.00,TxWx,2013-10-11 23:35:00,
2013-10-11 19:40:00,52.0,38.0,29.95,SSW,202,0.0,0.0,58,0.00,,,0.00,TxWx,2013-10-11 23:40:00,
2013-10-11 19:45:00,52.0,38.0,29.95,SSW,202,0.0,0.0,59,0.00,,,0.00,TxWx,2013-10-11 23:45:00,
2013-10-11 19:50:00,51.0,37.0,29.95,South,180,0.0,0.0,60,0.00,,,0.00,TxWx,2013-10-11 23:50:00,
2013-10-11 19:55:00,51.0,38.0,29.95,South,180,0.0,0.0,62,0.00,,,0.00,TxWx,2013-10-11 23:55:00,
2013-10-11 20:00:00,50.0,38.0,29.95,South,180,0.0,0.0,63,0.00,,,0.00,TxWx,2013-10-12 00:00:00,
2013-10-11 20:05:00,50.0,38.0,29.96,South,180,0.0,0.0,64,0.00,,,0.00,TxWx,2013-10-12 00:05:00,
2013-10-11 20:10:00,50.0,38.0,29.96,SSW,202,0.0,0.0,64,0.00,,,0.00,TxWx,2013-10-12 00:10:00,
2013-10-11 20:15:00,49.0,38.0,29.96,WSW,247,0.0,0.0,65,0.00,,,0.00,TxWx,2013-10-12 00:15:00,
2013-10-11 20:20:00,49.0,38.0,29.96,South,180,0.0,0.0,66,0.00,,,0.00,TxWx,2013-10-12 00:20:00,
2013-10-11 20:25:00,48.0,37.0,29.96,SSW,202,0.0,0.0,67,0.00,,,0.00,TxWx,2013-10-12 00:25:00,
2013-10-11 20:30:00,48.0,38.0,29.97,SSW,202,0.0,0.0,68,0.00,,,0.00,TxWx,2013-10-12 00:30:00,
2013-10-11 20:35:00,48.0,38.0,29.97,SSW,202,0.0,0.0,69,0.00,,,0.00,TxWx,2013-10-12 00:35:00,
2013-10-11 20:40:00,47.0,38.0,29.97,SSW,202,0.0,0.0,71,0.00,,,0.00,TxWx,2013-10-12 00:40:00,
2013-10-11 20:45:00,47.0,38.0,29.97,South,180,0.0,0.0,72,0.00,,,0.00,TxWx,2013-10-12 00:45:00,
2013-10-11 20:50:00,47.0,38.0,29.97,South,180,0.0,0.0,72,0.00,,,0.00,TxWx,2013-10-12 00:50:00,
2013-10-11 20:55:00,46.0,38.0,29.98,South,180,0.0,0.0,73,0.00,,,0.00,TxWx,2013-10-12 00:55:00,
2013-10-11 21:00:00,46.0,38.0,29.97,South,180,0.0,0.0,73,0.00,,,0.00,TxWx,2013-10-12 01:00:00,
2013-10-11 21:01:00,32.0,30.0,30.05,South,180,0.0,0.0,97,0.00,,,0.00,TxWx,2013-10-12 01:01:00,
2013-10-11 21:05:00,46.0,38.0,29.97,South,180,0.0,0.0,74,0.00,,,0.00,TxWx,2013-10-12 01:05:00,
2013-10-11 21:07:00,32.0,30.0,30.05,SE,135,0.0,0.0,97,0.00,,,0.00,TxWx,2013-10-12 01:07:00,
2013-10-11 21:08:00,32.0,30.0,30.05,South,180,0.0,0.0,97,0.00,,,0.00,TxWx,2013-10-12 01:08:00,
2013-10-11 21:10:00,45.0,37.0,29.98,South,180,0.0,0.0,74,0.00,,,0.00,TxWx,2013-10-12 01:10:00,
2013-10-11 21:11:00,32.0,30.0,30.05,SSW,202,0.0,0.0,97,0.00,,,0.00,TxWx,2013-10-12 01:11:00,
2013-10-11 21:13:00,32.0,30.0,30.06,SSE,157,0.0,0.0,97,0.00,,,0.00,TxWx,2013-10-12 01:13:00,
2013-10-11 21:14:00,32.0,30.0,30.06,SSE,157,0.0,0.0,97,0.00,,,0.00,TxWx,2013-10-12 01:14:00,
2013-10-11 21:15:00,45.0,38.0,29.98,South,180,0.0,0.0,75,0.00,,,0.00,TxWx,2013-10-12 01:15:00,
2013-10-11 21:16:00,32.0,30.0,30.06,SSE,157,0.0,0.0,97,0.00,,,0.00,TxWx,2013-10-12 01:16:00,
2013-10-11 21:19:00,32.0,30.0,30.06,South,180,0.0,0.0,97,0.00,,,0.00,TxWx,2013-10-12 01:19:00,
2013-10-11 21:21:00,45.0,38.0,29.98,South,180,0.0,0.0,76,0.00,,,0.00,TxWx,2013-10-12 01:21:00,
2013-10-11 21:26:00,45.0,38.0,29.98,South,180,0.0,0.0,76,0.00,,,0.00,TxWx,2013-10-12 01:26:00,
2013-10-11 21:27:00,32.0,30.0,30.06,South,180,0.0,0.0,97,0.00,,,0.00,TxWx,2013-10-12 01:27:00,
2013-10-11 21:28:00,32.0,30.0,30.06,South,180,0.0,0.0,97,0.00,,,0.00,TxWx,2013-10-12 01:28:00,
2013-10-11 21:30:00,32.0,30.0,30.06,SSW,202,0.0,0.0,97,0.00,,,0.00,TxWx,2013-10-12 01:30:00,
2013-10-11 21:31:00,45.0,38.0,29.98,South,180,0.0,0.0,77,0.00,,,0.00,TxWx,2013-10-12 01:31:00,
2013-10-11 21:32:00,32.0,30.0,30.06,South,180,0.0,0.0,97,0.00,,,0.00,TxWx,2013-10-12 01:32:00,
2013-10-11 21:36:00,44.0,37.0,29.98,SE,135,0.0,0.0,77,0.00,,,0.00,TxWx,2013-10-12 01:36:00,
2013-10-11 21:41:00,44.0,38.0,29.98,SSW,202,0.0,0.0,78,0.00,,,0.00,TxWx,2013-10-12 01:41:00,
2013-10-11 21:46:00,44.0,38.0,29.98,SSE,157,0.0,0.0,79,0.00,,,0.00,TxWx,2013-10-12 01:46:00,
2013-10-11 21:51:00,44.0,38.0,29.98,South,180,0.0,0.0,79,0.00,,,0.00,TxWx,2013-10-12 01:51:00,
2013-10-11 21:56:00,43.0,37.0,29.98,SSE,157,0.0,0.0,80,0.00,,,0.00,TxWx,2013-10-12 01:56:00,
2013-10-11 22:01:00,43.0,37.0,29.98,South,180,0.0,0.0,80,0.00,,,0.00,TxWx,2013-10-12 02:01:00,
2013-10-11 22:02:00,32.0,30.0,30.06,South,180,0.0,0.0,97,0.00,,,0.00,TxWx,2013-10-12 02:02:00,
2013-10-11 22:04:00,32.0,30.0,30.06,South,180,0.0,0.0,97,0.00,,,0.00,TxWx,2013-10-12 02:04:00,
2013-10-11 22:05:00,32.0,30.0,30.06,South,180,0.0,0.0,97,0.00,,,0.00,TxWx,2013-10-12 02:05:00,
2013-10-11 22:06:00,43.0,37.0,29.98,South,180,0.0,0.0,81,0.00,,,0.00,TxWx,2013-10-12 02:06:00,
2013-10-11 22:07:00,32.0,30.0,30.06,South,180,0.0,0.0,98,0.00,,,0.00,TxWx,2013-10-12 02:07:00,
2013-10-11 22:09:00,32.0,30.0,30.06,South,180,0.0,0.0,98,0.00,,,0.00,TxWx,2013-10-12 02:09:00,
2013-10-11 22:11:00,32.0,30.0,30.07,South,180,0.0,0.0,98,0.00,,,0.00,TxWx,2013-10-12 02:11:00,
2013-10-11 22:12:00,43.0,38.0,29.98,South,180,0.0,0.0,81,0.00,,,0.00,TxWx,2013-10-12 02:12:00,
2013-10-11 22:13:00,32.0,30.0,30.07,South,180,0.0,0.0,98,0.00,,,0.00,TxWx,2013-10-12 02:13:00,
2013-10-11 22:14:00,32.0,30.0,30.07,South,180,0.0,0.0,98,0.00,,,0.00,TxWx,2013-10-12 02:14:00,
2013-10-11 22:15:00,32.0,30.0,30.07,South,180,0.0,0.0,98,0.00,,,0.00,TxWx,2013-10-12 02:15:00,
2013-10-11 22:16:00,32.0,30.0,30.07,South,180,0.0,0.0,98,0.00,,,0.00,TxWx,2013-10-12 02:16:00,
2013-10-11 22:17:00,42.0,37.0,29.98,South,180,0.0,0.0,81,0.00,,,0.00,TxWx,2013-10-12 02:17:00,
2013-10-11 22:18:00,32.0,30.0,30.07,South,180,0.0,0.0,98,0.00,,,0.00,TxWx,2013-10-12 02:18:00,
2013-10-11 22:22:00,42.0,37.0,29.99,SSW,202,0.0,0.0,82,0.00,,,0.00,TxWx,2013-10-12 02:22:00,
2013-10-11 22:27:00,42.0,37.0,29.98,South,180,0.0,0.0,82,0.00,,,0.00,TxWx,2013-10-12 02:27:00,
2013-10-11 22:32:00,42.0,37.0,29.99,South,180,0.0,0.0,83,0.00,,,0.00,TxWx,2013-10-12 02:32:00,
2013-10-11 22:37:00,42.0,37.0,29.99,SSE,157,0.0,0.0,84,0.00,,,0.00,TxWx,2013-10-12 02:37:00,
2013-10-11 22:42:00,42.0,37.0,29.99,South,180,0.0,0.0,84,0.00,,,0.00,TxWx,2013-10-12 02:42:00,
2013-10-11 22:47:00,41.0,36.0,29.99,South,180,0.0,0.0,84,0.00,,,0.00,TxWx,2013-10-12 02:47:00,
2013-10-11 22:52:00,41.0,37.0,29.99,South,180,0.0,0.0,84,0.00,,,0.00,TxWx,2013-10-12 02:52:00,
2013-10-11 22:58:00,41.0,37.0,29.99,SSW,202,0.0,0.0,84,0.00,,,0.00,TxWx,2013-10-12 02:58:00,
2013-10-11 23:03:00,40.0,36.0,29.99,SSW,202,0.0,0.0,85,0.00,,,0.00,TxWx,2013-10-12 03:03:00,
2013-10-11 23:08:00,40.0,36.0,29.99,South,180,0.0,0.0,85,0.00,,,0.00,TxWx,2013-10-12 03:08:00,
2013-10-11 23:13:00,40.0,36.0,29.99,South,180,0.0,0.0,85,0.00,,,0.00,TxWx,2013-10-12 03:13:00,
2013-10-11 23:18:00,40.0,36.0,29.99,South,180,0.0,0.0,85,0.00,,,0.00,TxWx,2013-10-12 03:18:00,
2013-10-11 23:23:00,39.0,35.0,29.99,South,180,0.0,0.0,86,0.00,,,0.00,TxWx,2013-10-12 03:23:00,
2013-10-11 23:28:00,39.0,35.0,29.99,South,180,0.0,0.0,86,0.00,,,0.00,TxWx,2013-10-12 03:28:00,
2013-10-11 23:33:00,39.0,35.0,29.99,SSW,202,0.0,0.0,86,0.00,,,0.00,TxWx,2013-10-12 03:33:00,
2013-10-11 23:38:00,39.0,35.0,29.99,South,180,0.0,0.0,87,0.00,,,0.00,TxWx,2013-10-12 03:38:00,
2013-10-11 23:43:00,39.0,35.0,29.99,South,180,0.0,0.0,87,0.00,,,0.00,TxWx,2013-10-12 03:43:00,
2013-10-11 23:48:00,39.0,35.0,29.99,SE,135,0.0,0.0,87,0.00,,,0.00,TxWx,2013-10-12 03:48:00,
2013-10-11 23:54:00,39.0,35.0,29.99,South,180,0.0,0.0,87,0.00,,,0.00,TxWx,2013-10-12 03:54:00,
2013-10-11 23:59:00,38.0,35.0,29.99,South,180,0.0,0.0,88,0.00,,,0.00,TxWx,2013-10-12 03:59:00,